Regional Weather Roundup
Issued by NWS

Home | Current Version | Previous Version | Graphics & Text | Print | Product List | Glossary Off
Versions: 1 2 3 4 5 6 7 8 9 10 11 12 13 14 15 16 17 18 19 20 21 22 23 24 25 26 27

000
ASUS45 KPSR 291310
RWRAZ

ARIZONA HOURLY REGIONAL WEATHER ROUNDUP
NATIONAL WEATHER SERVICE PHOENIX AZ
600 AM MST SUN MAY 29 2016

NOTE: FAIR INDICATES FEW OR NO CLOUDS BELOW 12,000 FEET WITH NO
SIGNIFICANT WEATHER AND/OR OBSTRUCTIONS TO VISIBILITY.

AZZ001>003-036-291400-
NORTHWEST ARIZONA

CITY           SKY/WX    TMP DP  RH WIND       PRES   REMARKS
KINGMAN        CLEAR     59  29  31 SE8       30.00R
$$

AZZ004>008-015-016-018-291400-
NORTH CENTRAL ARIZONA

CITY           SKY/WX    TMP DP  RH WIND       PRES   REMARKS
GRAND CANYON   CLEAR     34  23  64 CALM      30.18R
WILLIAMS       CLEAR     39  23  52 S12       30.25R WCI  32
PRESCOTT       CLEAR     50  30  46 S6        30.11R
FLAGSTAFF      CLEAR     34  21  59 CALM      30.21R
PAYSON         CLEAR     57  27  30 NE5       30.15R
$$

AZZ009>014-017-291400-
NORTHEAST ARIZONA

CITY           SKY/WX    TMP DP  RH WIND       PRES   REMARKS
WINSLOW        CLEAR     47  24  40 E5        30.12R
SAINT JOHNS    CLEAR     50  22  33 S5        30.16R
WINDOW ROCK    CLEAR     40  26  57 CALM      30.21R
SHOW LOW       CLEAR     48  19  32 S10       30.20R
$$

AZZ023-291400-
GREATER PHOENIX AREA

CITY           SKY/WX    TMP DP  RH WIND       PRES   REMARKS
PHOENIX        CLEAR     73  37  27 E5        29.91R
BUCKEYE        CLEAR     63  28  27 CALM      29.93R
LUKE AFB       CLEAR     67  37  33 CALM      29.91R
DEER VALLEY    CLEAR     67  31  26 CALM      29.93R
SCOTTSDALE     CLEAR     67  40  37 CALM      29.95R
MESA-GATEWAY   CLEAR     63  36  36 E6        29.94R
CHANDLER       CLEAR     68  36  30 S7        29.93
$$

AZZ027-028-291400-
SOUTHWEST MARICOPA COUNTY AND PINAL COUNTY

CITY           SKY/WX    TMP DP  RH WIND       PRES   REMARKS
CASA GRANDE    CLEAR     63  30  29 CALM      29.95R
GILA BEND      FAIR      69  31  23 S9        29.90R
$$

AZZ503-504-507>509-291400-
SOUTHEAST ARIZONA

CITY           SKY/WX    TMP DP  RH WIND       PRES   REMARKS
TUCSON         CLEAR     62  16  16 E6        30.03R
DAVIS-MONTHAN  CLEAR     62  14  15 SE7       30.01R
RYAN FIELD     CLEAR     57  30  35 E5        30.02
NOGALES        CLEAR     52  24  33 NE5       30.07R
SIERRA VISTA   CLEAR     57  15  19 CALM      30.13R
DOUGLAS        CLEAR     54  13  19 SE6       30.11R
SAFFORD        CLEAR     59  11  15 SE5       30.04R
$$

AZZ020-021-025-026-031-291400-
SOUTHWEST ARIZONA

CITY           SKY/WX    TMP DP  RH WIND       PRES   REMARKS
YUMA           CLEAR     66  42  41 W3        29.85R
$$

CAZ031-033-041-043-047-048-061-291400-
SOUTHERN CALIFORNIA

CITY           SKY/WX    TMP DP  RH WIND       PRES   REMARKS
DOWNTOWN L.A.  CLOUDY    61  54  77 CALM      29.97R
L.A. AIRPORT   CLOUDY    59  55  87 SW5       29.98R
SAN DIEGO      CLOUDY    60  56  86 CALM      29.99R
BURBANK        CLOUDY    57  54  89 SW3       29.97R
ONTARIO        CLOUDY    60  53  77 W6        29.97R
RIVERSIDE      CLOUDY    60  54  80 W6        29.97R
PALM SPRINGS   CLEAR     66  54  65 CALM      29.89R
EL CENTRO NAS  CLEAR     64  47  53 NE5       29.86R
IMPERIAL       CLEAR     70  44  39 E7        29.84R
BLYTHE         CLEAR     64  33  31 CALM      29.86R
NEEDLES        CLEAR     75  32  20 CALM      29.86R
$$

NVZ020-UTZ003-291400-
SOUTHERN NEVADA-UTAH

CITY           SKY/WX    TMP DP  RH WIND       PRES   REMARKS
LAS VEGAS      PTCLDY    72  26  18 S3        29.87R
SALT LAKE CITY MOCLDY    60  43  53 SE8       30.08R
$$

NMZ009-TXZ055-291400-
NEW MEXICO-WEST TEXAS

CITY           SKY/WX    TMP DP  RH WIND       PRES   REMARKS
ALBUQUERQUE    CLOUDY    59  19  21 NE3       30.14R
EL PASO        MOSUNNY   72   8   8 SE8       30.08R
$$


........................KEY........................
SKY/WX - SKY CONDITION/WEATHER
TMP    - TEMPERATURE IN FAHRENHEIT
DP     - DEW POINT IN FAHRENHEIT
RH     - RELATIVE HUMIDITY IN PERCENT
WIND   - DIRECTION AND SPEED IN MILES PER HOUR (MPH)
VRB    - VARIABLE WIND DIRECTION
PRES   - MEAN SEA LEVEL PRESSURE IN INCHES OF MERCURY
         F - FALLING PRESSURE   R - RISING PRESSURE
         S - STEADY PRESSURE
VSB    - VISIBILITY IN MILES
HX     - HEAT INDEX IN FAHRENHEIT
WCI    - WIND CHILL INDEX IN FAHRENHEIT
TC     - TEMPERATURE IN CELSIUS WHICH IS ALSO KNOWN AS
         TEMPERATURE IN CENTIGRADE
AFB    - AIR FORCE BASE
         LUKE AFB IS LUKE AIR FORCE BASE
         DAVIS-MONTHAN IS DAVIS-MONTHAN AIR FORCE BASE
NAS    - NAVAL AIR STATION
         EL CENTRO NAS IS EL CENTRO NAVAL AIR STATION
N/A    - NOT AVAILABLE





USA.gov is the U.S. government's official web portal to all federal, state and local government web resources and services.